Home > Weather > Guelph > Past weeks

Flag for Canada Past Weather in Guelph, Ontario, Canada — Yesterday and Last 2 Weeks

Now
77 °F

Sunny.


Feels Like: 79 °F
Forecast: N/A
Wind: 15 mph from East

Location: Waterloo Well

Current Time: Jul 30, 2016 at 5:01:18 PM

Latest Report: Jul 30, 2016 at 4:00 PM


Visibility: 9 mi

Pressure: 30.01 "Hg

Humidity: 54%

Dew Point: 59 °F

Location of GuelphLocation

Past Weather in Guelph — Graph

°F

Guelph Temperature Yesterday

Maximum temperature yesterday: 81 °F (at 4:00 PM)
Minimum temperature yesterday: 63 °F (at 3:00 AM)
Average temperature yesterday: 71 °F

High & Low Weather Summary for the Past Weeks

 TemperatureHumidityPressure
High90 °F (Jul 22, 2:00 PM)100% (Jul 16, 2:04 AM)30.30 "Hg (Jul 16, 2:04 AM)
Low46 °F (Jul 20, 5:00 AM)27% (Jul 23, 4:00 PM)29.83 "Hg (Jul 25, 4:00 AM)
Average72 °F66%30.01 "Hg
* Reported Jul 15 4:00 PM — Jul 30 4:00 PM, Guelph, Weather by CustomWeather, © 2016

Note: Actual official high and low records may vary slightly from our data, if they occured in-between our weather recording intervals... More about our weather records

Advertising

Guelph Weather History for the Previous 24 Hours

Scroll right to see more
 ConditionsComfort  
Time TempWeatherWind HumidityBarometerVisibility
4:00 PM
Sat, Jul 30
77 °FSunny.15 mph54%30.01 "Hg9 mi
3:00 PM75 °FPassing clouds.15 mph57%30.01 "Hg9 mi
2:00 PM77 °FScattered clouds.12 mph57%30.03 "Hg9 mi
1:00 PM75 °FPartly sunny.14 mph65%30.04 "Hg9 mi
12:00 PM70 °FMostly cloudy.14 mph73%30.05 "Hg9 mi
11:00 AM68 °FMostly cloudy.15 mph78%30.05 "Hg9 mi
10:00 AM64 °FMore clouds than sun.7 mph78%30.06 "Hg9 mi
9:00 AM61 °FLight rain. Mostly cloudy.5 mph88%30.07 "Hg9 mi
8:49 AM61 °FLight rain. More clouds than sun.6 mph88%30.06 "Hg9 mi
8:00 AM63 °FMore clouds than sun.6 mph77%30.05 "Hg9 mi
7:00 AM63 °FOvercast.8 mph77%30.02 "Hg9 mi
6:00 AM63 °FLight rain. Overcast.7 mph77%30.02 "Hg9 mi
5:00 AM63 °FLight rain. Overcast.9 mph77%30.01 "Hg9 mi
4:00 AM64 °FMostly cloudy.9 mph73%30.01 "Hg9 mi
3:00 AM66 °FMostly cloudy.13 mph68%30.01 "Hg9 mi
2:00 AM66 °FOvercast.8 mph68%30.02 "Hg9 mi
1:00 AM68 °FMostly cloudy.8 mph64%30.01 "Hg9 mi
12:00 AM66 °FMostly cloudy.2 mph68%30.01 "Hg9 mi
11:00 PM
Fri, Jul 29
68 °FPassing clouds.5 mph64%30.02 "Hg9 mi
10:00 PM70 °FPassing clouds.5 mph69%30.01 "Hg9 mi
9:00 PM70 °FPassing clouds.5 mph73%29.99 "Hg9 mi
8:00 PM73 °FOvercast.6 mph65%29.98 "Hg9 mi
7:00 PM75 °FMostly cloudy.8 mph61%29.97 "Hg9 mi
6:00 PM79 °FMostly cloudy.7 mph51%29.96 "Hg9 mi
5:00 PM81 °FPartly sunny.5 mph45%29.96 "Hg9 mi
Weather by CustomWeather, © 2016

See weather overviewHow to use our weather pages